User: anonymous   Login
Location: *
(28.2408°N, 53.4600°E)
Time: 14:38:03
(UTC+00:00)
Language:

deb Centaur AC-2 - Orbit

View from above orbital plane
View from above orbital plane
View from above satellite
View from above satellite

Ground track
Ground track

The orbit data is extracted from the following two-line orbital elements,

1   701U 63047G   19325.90639544 +.00000162 +00000-0 +24433-4 0  9997
2   701 030.0136 227.3936 0529738 247.7632 106.5950 13.76965368778787
Epoch (UTC): 21 November 2019 21:45:12
Eccentricity: 0.0529738
inclination: 30.0136°
perigee height: 585 km
apogee height: 1364 km
right ascension of ascending node: 227.3936°
argument of perigee: 247.7632°
revolutions per day: 13.76965368
mean anomaly at epoch: 106.5950°
orbit number at epoch: 77878

The dashed part of the orbit path shows where the satellite is in the earth's shadow,  

DLR